Location: Los Ranchitos
(37.9930°N, 122.5425°W)
Time: 08:51:29
(UTC+00:00)

DELTA 2 R/B (1) - Pass Details

Date: 21 September 2020
Orbit: 790 x 803 km, 39.6° (Epoch: 28 October)

Event Time Altitude Azimuth Distance (km) Brightness Sun altitude
Rises 02:57:29 0° 285° (WNW) 3,278 9.0 -10.3°
Reaches altitude 10° 02:59:58 10° 282° (WNW) 2,348 7.6 -10.8°
Maximum altitude 03:05:27 64° 202° (SSW) 871 3.8 -11.9°
Enters shadow 03:09:58 15° 124° (ESE) 2,003 5.1 -12.7°
